Location: Newark
(11.3000°S, 17.8000°E)
Time: 07:52:45
(UTC+00:00)

LightSail 2 - Visible Passes

Search period start: 13 December 2019 00:00
Search period end: 23 December 2019 00:00
Orbit: 696 x 730 km, 24.0° (Epoch: 12 December)

Date Brightness Start Highest point End Pass type
(mag) Time Alt. Az. Time Alt. Az. Time Alt. Az.
13 Dec 8.2 00:55:31 11° SE 00:55:31 11° SE 00:55:43 10° SE visible
13 Dec 7.2 02:34:31 10° SW 02:38:26 22° S 02:42:21 10° ESE visible
13 Dec 7.1 18:33:10 10° NNW 18:34:24 14° N 18:34:24 14° N visible
14 Dec 7.3 01:40:08 20° S 01:40:08 20° S 01:43:47 10° SE visible
14 Dec 6.7 03:21:36 10° SW 03:26:13 34° SSE 03:30:52 10° E visible
14 Dec 7.0 17:36:20 10° N 17:38:31 13° NNE 17:40:42 10° NE visible
14 Dec 7.4 19:19:05 10° NW 19:19:54 14° NW 19:19:54 14° NW visible
15 Dec 6.9 02:24:53 16° SW 02:27:59 28° SSE 02:32:19 10° ESE visible
15 Dec 5.8 18:21:18 10° NW 18:25:54 32° NNE 18:26:24 32° NE visible
16 Dec 7.3 01:30:49 22° SSE 01:30:49 22° SSE 01:33:44 10° ESE visible
16 Dec 5.9 03:10:39 10° WSW 03:15:37 51° SSE 03:20:35 10° E visible
16 Dec 5.6 19:08:02 10° WNW 19:12:00 53° WNW 19:12:00 53° WNW visible
17 Dec 6.3 02:15:53 31° SSW 02:17:24 39° SSE 02:22:09 10° E visible
17 Dec 5.2 18:09:58 10° NW 18:15:04 58° NNE 18:18:29 20° E visible
17 Dec 7.4 19:55:45 10° W 19:57:31 20° W 19:57:31 20° W visible
18 Dec 7.6 01:22:07 18° ESE 01:22:07 18° ESE 01:23:38 10° ESE visible
18 Dec 5.1 03:01:09 18° WSW 03:04:53 85° SSE 03:09:59 10° ENE visible
18 Dec 5.6 18:57:20 10° W 19:02:27 59° SSW 19:03:55 42° SE visible
19 Dec 5.7 02:07:31 53° ESE 02:07:31 53° ESE 02:11:44 10° ENE visible
19 Dec 5.7 03:47:30 10° W 03:52:11 37° NNW 03:56:53 10° NE visible
19 Dec 5.2 17:59:02 10° WNW 18:04:15 82° SSW 18:09:26 10° ESE visible
19 Dec 6.9 19:45:28 10° WSW 19:49:12 29° SSW 19:49:12 29° SSW visible
20 Dec 5.2 02:53:02 46° WNW 02:54:04 55° NNW 02:59:01 10° NE visible
20 Dec 6.4 18:46:53 10° W 18:51:44 38° SSW 18:55:17 17° SE visible
20 Dec 8.2 20:33:58 10° SW 20:34:18 11° SW 20:34:18 11° SW visible
21 Dec 7.2 01:59:32 19° ENE 01:59:32 19° ENE 02:00:59 10° ENE visible
21 Dec 6.4 03:38:34 14° WNW 03:41:20 21° NNW 03:45:08 10° NNE visible
21 Dec 6.0 17:48:23 10° W 17:53:28 50° SSW 17:58:30 10° SE visible
21 Dec 7.1 19:35:19 10° WSW 19:39:26 23° S 19:40:12 23° S visible
22 Dec 6.5 02:45:03 24° N 02:45:03 24° N 02:47:37 10° NE visible
22 Dec 7.0 18:36:38 10° WSW 18:41:04 27° SSW 18:45:29 10° SE visible
22 Dec 7.9 20:23:40 10° SW 20:24:55 14° SW 20:24:55 14° SW visible
